When you browse on this site, cookies collect data to enhance your experience and personalize the content and advertising you see.
Visit our Privacy Policy to learn more. By continuing to use the site, you agree to this use of cookies and data.
  • In Hungary
  • List of Countries
  • For 7 days
  • Water Temperature
  • Satellite Maps
  • Weather Map
  • News
  • Weather Widgets
  • user-avatar
    Login

    Hourly Weather Anzio

    Today, 15 December, Saturday

    Time Temperature Precipitation Wind Pressure Humidity
    00:00 +9°C° 0.4 mm 5 mps 753 mmHg 87%
    01:00 +8°C° 0 mm 5 mps 753 mmHg 88%
    02:00 +8°C° 0.3 mm 5 mps 753 mmHg 87%
    03:00 +8°C° 0.3 mm 5 mps 753 mmHg 85%
    04:00 +7°C° 0.3 mm 6 mps 753 mmHg 84%
    05:00 +7°C° 0 mm 6 mps 754 mmHg 83%
    06:00 +7°C° 0 mm 6 mps 754 mmHg 82%
    07:00 +5°C° 0 mm 6 mps 754 mmHg 82%
    08:00 +7°C° 0 mm 6 mps 754 mmHg 79%
    09:00 +7°C° 0 mm 6 mps 755 mmHg 77%
    10:00 +8°C° 0 mm 6 mps 755 mmHg 74%
    11:00 +9°C° 0 mm 6 mps 755 mmHg 71%
    12:00 +9°C° 0 mm 6 mps 755 mmHg 68%
    13:00 +10°C° 0 mm 6 mps 755 mmHg 66%
    14:00 +10°C° 0 mm 6 mps 756 mmHg 66%
    15:00 +9°C° 0 mm 6 mps 756 mmHg 67%
    16:00 +9°C° 0 mm 6 mps 756 mmHg 67%
    17:00 +8°C° 0 mm 6 mps 757 mmHg 68%
    18:00 +7°C° 0 mm 6 mps 757 mmHg 69%
    19:00 +6°C° 0 mm 5 mps 758 mmHg 70%
    20:00 +6°C° 0 mm 5 mps 758 mmHg 70%
    21:00 +5°C° 0 mm 4 mps 758 mmHg 70%
    22:00 +5°C° 0 mm 4 mps 759 mmHg 70%
    23:00 +5°C° 0 mm 4 mps 759 mmHg 69%

    Tomorrow, 16 December, Sunday

    Time Temperature Precipitation Wind Pressure Humidity
    00:00 +4°C° 0 mm 4 mps 759 mmHg 68%
    01:00 +4°C° 0 mm 3 mps 759 mmHg 67%
    02:00 +4°C° 0 mm 3 mps 759 mmHg 66%
    03:00 +4°C° 0 mm 3 mps 759 mmHg 64%
    04:00 +5°C° 0 mm 2 mps 759 mmHg 63%
    05:00 +5°C° 0 mm 2 mps 759 mmHg 63%
    06:00 +5°C° 0 mm 2 mps 759 mmHg 62%
    07:00 +5°C° 0 mm 2 mps 759 mmHg 62%
    08:00 +6°C° 0 mm 2 mps 760 mmHg 60%
    09:00 +8°C° 0 mm 1 mps 760 mmHg 57%
    10:00 +9°C° 0 mm 1 mps 760 mmHg 55%
    11:00 +10°C° 0 mm 1 mps 760 mmHg 52%
    12:00 +11°C° 0 mm 1 mps 760 mmHg 49%
    13:00 +12°C° 0 mm 1 mps 759 mmHg 47%
    14:00 +11°C° 0 mm 1 mps 759 mmHg 49%
    15:00 +10°C° 0 mm 2 mps 759 mmHg 52%
    16:00 +9°C° 0 mm 2 mps 759 mmHg 55%
    17:00 +9°C° 0 mm 3 mps 759 mmHg 59%
    18:00 +9°C° 0 mm 3 mps 759 mmHg 63%
    19:00 +8°C° 0 mm 3 mps 759 mmHg 67%
    20:00 +8°C° 0.2 mm 4 mps 758 mmHg 70%
    21:00 +8°C° 0.2 mm 6 mps 758 mmHg 73%
    22:00 +8°C° 0.2 mm 7 mps 757 mmHg 76%
    23:00 +8°C° 0.7 mm 7 mps 756 mmHg 78%

    Day after tomorrow, 17 December, Monday

    Time Temperature Precipitation Wind Pressure Humidity
    00:00 +8°C° 0.7 mm 7 mps 756 mmHg 81%
    01:00 +8°C° 0.7 mm 7 mps 755 mmHg 83%
    02:00 +9°C° 1.5 mm 7 mps 754 mmHg 86%
    03:00 +9°C° 1.5 mm 7 mps 754 mmHg 88%
    04:00 +10°C° 1.5 mm 7 mps 753 mmHg 90%
    05:00 +10°C° 0.5 mm 7 mps 753 mmHg 91%
    06:00 +10°C° 0.5 mm 7 mps 753 mmHg 91%
    07:00 +11°C° 0.5 mm 7 mps 753 mmHg 91%
    08:00 +11°C° 0.1 mm 7 mps 753 mmHg 89%
    09:00 +11°C° 0.1 mm 7 mps 754 mmHg 87%
    10:00 +11°C° 0.1 mm 6 mps 754 mmHg 85%
    11:00 +11°C° 0 mm 6 mps 754 mmHg 82%
    12:00 +11°C° 0 mm 7 mps 754 mmHg 79%
    13:00 +11°C° 0 mm 7 mps 754 mmHg 76%
    14:00 +11°C° 0 mm 7 mps 754 mmHg 77%
    15:00 +10°C° 0 mm 7 mps 755 mmHg 78%
    16:00 +9°C° 0 mm 7 mps 755 mmHg 79%
    17:00 +9°C° 0 mm 8 mps 755 mmHg 79%
    18:00 +7°C° 0 mm 8 mps 756 mmHg 79%
    19:00 +7°C° 0 mm 8 mps 757 mmHg 79%
    20:00 +7°C° 0.1 mm 8 mps 757 mmHg 78%
    21:00 +7°C° 0.1 mm 8 mps 758 mmHg 77%
    22:00 +6°C° 0.1 mm 8 mps 758 mmHg 76%
    23:00 +6°C° 0 mm 8 mps 759 mmHg 75%

    18 December, Tuesday

    Time Temperature Precipitation Wind Pressure Humidity
    00:00 +6°C° 0 mm 7 mps 759 mmHg 74%
    01:00 +6°C° 0 mm 7 mps 760 mmHg 73%
    02:00 +5°C° 0 mm 8 mps 760 mmHg 73%
    03:00 +5°C° 0 mm 8 mps 761 mmHg 72%
    04:00 +5°C° 0 mm 8 mps 761 mmHg 71%
    05:00 +5°C° 0 mm 8 mps 762 mmHg 71%
    06:00 +5°C° 0 mm 8 mps 762 mmHg 71%
    07:00 +5°C° 0 mm 7 mps 763 mmHg 71%
    08:00 +6°C° 0 mm 7 mps 763 mmHg 69%
    09:00 +6°C° 0 mm 7 mps 764 mmHg 67%
    10:00 +8°C° 0 mm 6 mps 764 mmHg 65%
    11:00 +9°C° 0 mm 6 mps 764 mmHg 61%
    12:00 +10°C° 0 mm 5 mps 764 mmHg 56%
    13:00 +12°C° 0 mm 5 mps 764 mmHg 52%
    14:00 +12°C° 0 mm 5 mps 764 mmHg 54%
    15:00 +11°C° 0 mm 4 mps 764 mmHg 57%
    16:00 +11°C° 0 mm 4 mps 764 mmHg 59%
    17:00 +10°C° 0 mm 4 mps 764 mmHg 61%
    18:00 +9°C° 0 mm 3 mps 764 mmHg 63%
    19:00 +8°C° 0 mm 3 mps 765 mmHg 65%
    20:00 +8°C° 0 mm 3 mps 764 mmHg 63%
    21:00 +7°C° 0 mm 2 mps 764 mmHg 61%
    22:00 +7°C° 0 mm 2 mps 764 mmHg 59%
    23:00 +7°C° 0 mm 2 mps 764 mmHg 57%

    19 December, Wednesday

    Time Temperature Precipitation Wind Pressure Humidity
    00:00 +7°C° 0 mm 2 mps 764 mmHg 54%
    01:00 +7°C° 0 mm 2 mps 764 mmHg 51%
    02:00 +6°C° 0 mm 2 mps 764 mmHg 50%
    03:00 +6°C° 0 mm 2 mps 764 mmHg 49%
    04:00 +6°C° 0 mm 2 mps 763 mmHg 47%
    05:00 +6°C° 0 mm 2 mps 763 mmHg 47%
    06:00 +7°C° 0 mm 1 mps 763 mmHg 46%
    07:00 +7°C° 0 mm 1 mps 763 mmHg 45%
    08:00 +8°C° 0 mm 1 mps 763 mmHg 45%
    09:00 +10°C° 0 mm 1 mps 763 mmHg 45%
    10:00 +11°C° 0 mm 1 mps 763 mmHg 45%
    11:00 +12°C° 0 mm 1 mps 763 mmHg 46%
    12:00 +12°C° 0 mm 1 mps 763 mmHg 46%
    13:00 +13°C° 0 mm 1 mps 763 mmHg 46%
    14:00 +12°C° 0 mm 1 mps 762 mmHg 51%
    15:00 +12°C° 0 mm 1 mps 762 mmHg 55%
    16:00 +10°C° 0 mm 2 mps 762 mmHg 60%
    17:00 +10°C° 0 mm 2 mps 762 mmHg 62%
    18:00 +9°C° 0 mm 2 mps 762 mmHg 64%
    19:00 +9°C° 0 mm 3 mps 762 mmHg 66%
    20:00 +9°C° 0 mm 3 mps 762 mmHg 66%
    21:00 +9°C° 0 mm 3 mps 762 mmHg 66%
    22:00 +7°C° 0 mm 4 mps 762 mmHg 66%
    23:00 +7°C° 0 mm 4 mps 762 mmHg 64%

    20 December, Thursday

    Time Temperature Precipitation Wind Pressure Humidity
    00:00 +7°C° 0 mm 4 mps 762 mmHg 63%
    01:00 +7°C° 0 mm 4 mps 761 mmHg 62%
    02:00 +8°C° 0 mm 5 mps 761 mmHg 63%
    03:00 +8°C° 0 mm 5 mps 761 mmHg 63%
    04:00 +8°C° 0 mm 5 mps 760 mmHg 63%
    05:00 +8°C° 0.2 mm 6 mps 760 mmHg 66%
    06:00 +8°C° 0.2 mm 7 mps 760 mmHg 69%
    07:00 +9°C° 0.2 mm 7 mps 759 mmHg 72%
    08:00 +9°C° 1.3 mm 7 mps 759 mmHg 76%
    09:00 +9°C° 1.3 mm 8 mps 759 mmHg 81%
    10:00 +10°C° 1.3 mm 8 mps 758 mmHg 85%
    11:00 +10°C° 2 mm 8 mps 758 mmHg 84%
    12:00 +11°C° 2 mm 8 mps 758 mmHg 82%
    13:00 +11°C° 2 mm 8 mps 757 mmHg 81%
    14:00 +11°C° 0.3 mm 8 mps 757 mmHg 81%
    15:00 +11°C° 0.3 mm 7 mps 758 mmHg 80%
    16:00 +11°C° 0.3 mm 7 mps 758 mmHg 80%
    17:00 +10°C° 0.5 mm 6 mps 758 mmHg 81%
    18:00 +9°C° 0.5 mm 5 mps 758 mmHg 83%
    19:00 +10°C° 0.5 mm 4 mps 759 mmHg 84%
    20:00 +8°C° 0.3 mm 4 mps 759 mmHg 85%
    21:00 +8°C° 0.3 mm 4 mps 759 mmHg 85%
    22:00 +8°C° 0.3 mm 4 mps 760 mmHg 86%
    23:00 +8°C° 0.5 mm 4 mps 760 mmHg 86%
    Show more